EW0908 Weather Reports


Display with metric or nautical units.
time (UTC)temp
F
wind
direction
speed
MPH
gust
MPH
rain 1hr
in
rain 24hr
in
rain mn
in
humidity
%
barometer
mb
20170821082805 81 7 9.0 21.0 0.00 0.00 0.00 56 1011.5
20170821082305 81 29 7.0 21.0 0.00 0.00 0.00 56 1011.5
20170821081805 80 8 12.0 28.0 0.00 0.00 0.00 56 1011.5
20170821081306 80 333 12.0 23.0 0.00 0.00 0.00 58 1011.5
20170821080805 80 337 13.0 30.0 0.00 0.00 0.00 58 1011.2
20170821080305 80 343 14.0 28.0 0.00 0.00 0.00 59 1011.5
20170821075806 81 38 10.0 23.0 0.00 0.00 0.00 58 1011.2
20170821075306 81 14 12.0 23.0 0.00 0.00 0.00 61 1011.2
20170821074805 81 336 13.0 30.0 0.00 0.00 0.00 61 1011.2
20170821074305 81 3 18.0 30.0 0.00 0.00 0.00 62 1011.5
20170821073805 81 28 16.0 30.0 0.00 0.00 0.00 59 1011.2
20170821073305 81 12 10.0 17.0 0.00 0.00 0.00 60 1011.4
20170821072806 81 12 9.0 23.0 0.00 0.00 0.00 58 1011.2
20170821072306 81 84 9.0 28.0 0.00 0.00 0.00 59 1011.2
20170821071806 81 6 13.0 23.0 0.00 0.00 0.00 58 1011.2
20170821071305 81 15 5.0 21.0 0.00 0.00 0.00 56 1011.2
20170821070805 81 41 6.0 13.0 0.00 0.00 0.00 56 1011.2
20170821070305 81 66 5.0 13.0 0.00 0.00 0.00 56 1011.2
20170821065805 81 289 6.0 13.0 0.00 0.00 0.00 58 1011.2
20170821065305 81 238 6.0 25.0 0.00 0.00 0.00 58 1010.9
20170821064805 80 350 11.0 21.0 0.00 0.00 0.00 58 1010.8
20170821064305 80 355 4.0 17.0 0.00 0.00 0.00 58 1010.8
20170821063806 80 340 11.0 21.0 0.00 0.00 0.00 57 1010.8
20170821063306 80 353 7.0 15.0 0.00 0.00 0.00 57 1010.8
20170821062805 79 343 11.0 17.0 0.00 0.00 0.00 57 1010.5
20170821062305 79 344 7.0 13.0 0.00 0.00 0.00 57 1010.8
20170821061805 79 349 5.0 13.0 0.00 0.00 0.00 55 1010.7
20170821061306 79 332 6.0 13.0 0.00 0.00 0.00 55 1010.6
20170821060805 79 349 5.0 10.0 0.00 0.00 0.00 54 1010.8
20170821060304 79 339 6.0 10.0 0.00 0.00 0.00 54 1010.8
20170821055806 79 10 2.0 5.0 0.00 0.00 0.00 54 1010.8
20170821055305 79 286 0.0 2.0 0.00 0.00 0.00 54 1010.8
20170821054805 79 7 2.0 5.0 0.00 0.00 0.00 54 1010.8
20170821054305 79 342 1.0 2.0 0.00 0.00 0.00 53 1010.8
20170821053805 79 318 1.0 2.0 0.00 0.00 0.00 51 1010.5
20170821053305 79 320 0.0 0.0 0.00 0.00 0.00 49 1010.5
20170821052805 79 4 0.0 0.0 0.00 0.00 0.00 47 1010.5
20170821052305 79 325 0.0 2.0 0.00 0.00 0.00 48 1010.5
20170821051805 78 358 0.0 2.0 0.00 0.00 0.00 50 1010.5
20170821051305 78 358 0.0 0.0 0.00 0.00 0.00 51 1010.2
20170821050805 78 8 0.0 0.0 0.00 0.00 0.00 50 1010.2
20170821050305 77 353 0.0 0.0 0.00 0.00 0.00 50 1010.2
20170821045805 76 49 0.0 2.0 0.00 0.00 0.00 53 1010.2
20170821045305 76 18 0.0 2.0 0.00 0.00 0.00 56 1010.2
20170821044805 76 69 0.0 2.0 0.00 0.00 0.00 59 1010.1
20170821044304 75 0 0.0 0.0 0.00 0.00 0.00 61 1010.0
20170821043805 75 1 1.0 2.0 0.00 0.00 0.00 60 1009.8
20170821043305 75 331 0.0 0.0 0.00 0.00 0.00 62 1009.8
20170821042804 75 273 1.0 2.0 0.00 0.00 0.00 62 1009.8
20170821042305 75 337 0.0 0.0 0.00 0.00 0.00 62 1009.8
20170821041805 75 355 0.0 5.0 0.00 0.00 0.00 61 1009.8
20170821041304 75 358 2.0 5.0 0.00 0.00 0.00 61 1009.8
20170821040805 75 335 0.0 0.0 0.00 0.00 0.00 59 1009.7
20170821040305 75 354 0.0 0.0 0.00 0.00 0.00 56 1009.5
20170821035805 75 12 0.0 0.0 0.00 0.00 0.00 56 1009.5
20170821035305 74 345 0.0 0.0 0.00 0.00 0.00 57 1009.5
20170821034804 74 4 0.0 0.0 0.00 0.00 0.00 56 1009.5
20170821034305 74 11 0.0 0.0 0.00 0.00 0.00 57 1009.5
20170821033804 75 322 0.0 0.0 0.00 0.00 0.00 56 1009.5
20170821033305 75 7 0.0 0.0 0.00 0.00 0.00 56 1009.5
20170821032804 75 1 0.0 0.0 0.00 0.00 0.00 54 1009.5
20170821032305 75 3 0.0 0.0 0.00 0.00 0.00 55 1009.5
20170821031804 75 354 0.0 0.0 0.00 0.00 0.00 55 1009.5
20170821031305 75 314 0.0 0.0 0.00 0.00 0.00 54 1009.5
20170821030804 75 292 0.0 0.0 0.00 0.00 0.00 55 1009.5
20170821030305 75 288 0.0 0.0 0.00 0.00 0.00 54 1009.5
20170821025805 75 294 0.0 0.0 0.00 0.00 0.00 54 1009.5
20170821025305 75 4 0.0 0.0 0.00 0.00 0.00 55 1009.5
20170821024805 75 333 0.0 0.0 0.00 0.00 0.00 55 1009.5
20170821024305 75 243 0.0 0.0 0.00 0.00 0.00 54 1009.4
20170821023805 75 303 0.0 0.0 0.00 0.00 0.00 52 1009.2
20170821023305 75 245 0.0 0.0 0.00 0.00 0.00 53 1009.1
20170821022804 75 278 0.0 0.0 0.00 0.00 0.00 52 1009.1
20170821022304 75 134 0.0 0.0 0.00 0.00 0.00 51 1009.1
20170821021805 75 172 0.0 0.0 0.00 0.00 0.00 51 1009.1
20170821021305 75 58 0.0 0.0 0.00 0.00 0.00 50 1009.1
20170821020805 75 300 0.0 0.0 0.00 0.00 0.00 50 1009.1
20170821020304 75 93 0.0 0.0 0.00 0.00 0.00 50 1009.1
20170821015804 75 150 0.0 0.0 0.00 0.00 0.00 51 1009.1
20170821015305 75 194 0.0 0.0 0.00 0.00 0.00 51 1009.1
20170821014804 75 146 0.0 5.0 0.00 0.00 0.00 52 1009.1
20170821014304 75 123 1.0 5.0 0.00 0.00 0.00 54 1009.1
20170821013804 75 152 2.0 8.0 0.00 0.00 0.00 54 1009.1
20170821013305 76 165 3.0 8.0 0.00 0.00 0.00 54 1009.1
20170821012804 76 156 2.0 5.0 0.00 0.00 0.00 54 1009.3
20170821012304 76 177 1.0 5.0 0.00 0.00 0.00 54 1009.5
20170821011804 76 233 2.0 5.0 0.00 0.00 0.00 54 1009.5
20170821011305 76 213 1.0 2.0 0.00 0.00 0.00 52 1009.5
20170821010804 76 148 1.0 2.0 0.00 0.00 0.00 53 1009.5
20170821010304 76 47 0.0 2.0 0.00 0.00 0.00 53 1009.5
20170821005804 76 159 0.0 5.0 0.00 0.00 0.00 53 1009.5
20170821005305 76 169 2.0 5.0 0.00 0.00 0.00 54 1009.5
20170821004804 76 219 2.0 5.0 0.00 0.00 0.00 53 1009.5
20170821004304 76 155 0.0 0.0 0.00 0.00 0.00 52 1009.5
20170821003804 76 168 0.0 0.0 0.00 0.00 0.00 54 1009.5
20170821003305 76 195 0.0 2.0 0.00 0.00 0.00 55 1009.5
20170821002805 76 288 0.0 0.0 0.00 0.00 0.00 56 1009.5
20170821002304 76 301 0.0 0.0 0.00 0.00 0.00 54 1009.5
20170821001804 76 15 0.0 0.0 0.00 0.00 0.00 51 1009.5
20170821001304 76 66 0.0 0.0 0.00 0.00 0.00 56 1009.5
20170821000804 76 342 0.0 0.0 0.00 0.00 0.00 57 1009.5
20170821000304 77 319 0.0 0.0 0.00 0.00 0.00 57 1009.5
20170820235804 77 292 1.0 2.0 0.00 0.00 0.00 55 1009.5
20170820235304 77 271 0.0 2.0 0.00 0.00 0.00 55 1009.5
20170820234804 77 275 0.0 2.0 0.00 0.00 0.00 55 1009.8
20170820234304 77 345 0.0 0.0 0.00 0.00 0.00 52 1009.8
20170820233804 78 341 0.0 0.0 0.00 0.00 0.00 52 1009.6
20170820233304 78 318 0.0 0.0 0.00 0.00 0.00 52 1009.8
20170820232804 78 236 0.0 0.0 0.00 0.00 0.00 52 1009.8
20170820232304 78 274 0.0 0.0 0.00 0.00 0.00 52 1009.8
20170820231804 78 256 1.0 2.0 0.00 0.00 0.00 52 1009.8
20170820231304 78 287 0.0 2.0 0.00 0.00 0.00 51 1009.8
20170820230804 79 108 1.0 2.0 0.00 0.00 0.00 48 1009.8
20170820230312 79 99 0.0 2.0 0.00 0.00 0.00 47 1009.8
20170820225812 79 3 0.0 2.0 0.00 0.00 0.00 48 1009.8
20170820225311 79 49 0.0 2.0 0.00 0.00 0.00 48 1009.8
20170820224812 79 353 0.0 0.0 0.00 0.00 0.00 48 1009.8
20170820224312 79 250 0.0 2.0 0.00 0.00 0.00 48 1009.8
20170820223812 79 137 1.0 2.0 0.00 0.00 0.00 47 1009.8
20170820223312 80 154 0.0 2.0 0.00 0.00 0.00 48 1009.8
20170820222812 80 192 0.0 2.0 0.00 0.00 0.00 47 1010.2
20170820222312 80 233 0.0 2.0 0.00 0.00 0.00 47 1010.1
20170820221812 80 195 0.0 2.0 0.00 0.00 0.00 46 1010.0
20170820221312 80 139 0.0 5.0 0.00 0.00 0.00 46 1010.2
20170820220812 80 83 1.0 5.0 0.00 0.00 0.00 46 1010.2
20170820220312 81 144 0.0 2.0 0.00 0.00 0.00 45 1010.2
20170820215811 81 177 1.0 5.0 0.00 0.00 0.00 46 1010.2
20170820215312 81 204 1.0 5.0 0.00 0.00 0.00 45 1010.2
20170820214812 81 165 1.0 5.0 0.00 0.00 0.00 45 1010.2
20170820214311 81 155 1.0 5.0 0.00 0.00 0.00 44 1010.2
20170820213812 81 129 2.0 5.0 0.00 0.00 0.00 44 1010.2
20170820213311 81 112 0.0 2.0 0.00 0.00 0.00 44 1010.2
20170820212811 81 98 2.0 5.0 0.00 0.00 0.00 44 1010.2
20170820212312 81 128 5.0 8.0 0.00 0.00 0.00 44 1010.2
20170820211812 81 139 4.0 5.0 0.00 0.00 0.00 44 1010.2
20170820211312 81 121 4.0 8.0 0.00 0.00 0.00 45 1010.2
20170820210824 81 151 3.0 8.0 0.00 0.00 0.00 45 1010.2
20170820210312 81 179 3.0 8.0 0.00 0.00 0.00 44 1010.2
20170820205812 81 142 4.0 8.0 0.00 0.00 0.00 44 1010.2
20170820205312 81 117 5.0 8.0 0.00 0.00 0.00 44 1010.2
20170820204811 81 121 2.0 8.0 0.00 0.00 0.00 45 1010.2
20170820204312 82 144 2.0 5.0 0.00 0.00 0.00 46 1010.3
20170820203812 82 151 2.0 10.0 0.00 0.00 0.00 45 1010.2
20170820203311 82 137 2.0 5.0 0.00 0.00 0.00 45 1010.2
20170820202811 82 142 2.0 5.0 0.00 0.00 0.00 43 1010.3
20170820202312 82 351 0.0 5.0 0.00 0.00 0.00 43 1010.2
20170820201811 82 123 3.0 8.0 0.00 0.00 0.00 42 1010.5
20170820201312 82 195 3.0 5.0 0.00 0.00 0.00 44 1010.2
20170820200811 82 84 1.0 5.0 0.00 0.00 0.00 42 1010.2
20170820200311 83 185 3.0 5.0 0.00 0.00 0.00 42 1010.2
20170820195812 83 201 2.0 5.0 0.00 0.00 0.00 42 1010.3
20170820195311 83 165 1.0 5.0 0.00 0.00 0.00 42 1010.5
20170820194812 83 111 2.0 8.0 0.00 0.00 0.00 43 1010.5
20170820194312 83 125 4.0 8.0 0.00 0.00 0.00 43 1010.5
20170820193811 83 132 4.0 8.0 0.00 0.00 0.00 44 1010.5
20170820193311 83 133 5.0 8.0 0.00 0.00 0.00 42 1010.5
20170820192812 84 136 3.0 5.0 0.00 0.00 0.00 39 1010.5
20170820192311 84 137 4.0 10.0 0.00 0.00 0.00 38 1010.5
20170820191812 84 165 2.0 8.0 0.00 0.00 0.00 38 1010.5
20170820191312 84 144 2.0 8.0 0.00 0.00 0.00 38 1010.5
20170820190811 84 157 5.0 10.0 0.00 0.00 0.00 38 1010.5
20170820190311 84 150 5.0 10.0 0.00 0.00 0.00 38 1010.5
20170820185812 84 142 4.0 8.0 0.00 0.00 0.00 38 1010.5
20170820185311 84 142 3.0 10.0 0.00 0.00 0.00 38 1010.5
20170820184811 84 141 5.0 10.0 0.00 0.00 0.00 38 1010.5
20170820184312 84 162 6.0 8.0 0.00 0.00 0.00 38 1010.5
20170820183811 84 156 5.0 8.0 0.00 0.00 0.00 38 1010.5
20170820183311 84 146 5.0 13.0 0.00 0.00 0.00 38 1010.5
20170820182811 84 149 6.0 8.0 0.00 0.00 0.00 38 1010.5
20170820182311 85 145 4.0 8.0 0.00 0.00 0.00 37 1010.5
20170820181811 85 152 4.0 10.0 0.00 0.00 0.00 38 1010.3
20170820181311 85 166 5.0 13.0 0.00 0.00 0.00 39 1010.5
20170820180811 85 136 2.0 5.0 0.00 0.00 0.00 37 1010.2
20170820180312 85 165 5.0 8.0 0.00 0.00 0.00 36 1010.5
20170820175811 85 162 3.0 8.0 0.00 0.00 0.00 37 1010.4
20170820175311 85 150 4.0 8.0 0.00 0.00 0.00 36 1010.5
20170820174811 85 146 4.0 10.0 0.00 0.00 0.00 35 1010.3
20170820174331 85 148 5.0 10.0 0.00 0.00 0.00 36 1010.2
20170820173811 86 151 5.0 8.0 0.00 0.00 0.00 36 1010.5
20170820173311 86 149 6.0 10.0 0.00 0.00 0.00 37 1010.3
20170820172811 86 175 6.0 10.0 0.00 0.00 0.00 35 1010.4
20170820172311 86 153 6.0 10.0 0.00 0.00 0.00 35 1010.2
20170820171810 87 149 5.0 10.0 0.00 0.00 0.00 33 1010.4
20170820171311 87 142 4.0 13.0 0.00 0.00 0.00 33 1010.5
20170820170811 87 157 4.0 13.0 0.00 0.00 0.00 32 1010.5
20170820170311 87 149 6.0 13.0 0.00 0.00 0.00 32 1010.5
20170820165811 88 169 6.0 13.0 0.00 0.00 0.00 31 1010.2
20170820165311 88 146 7.0 13.0 0.00 0.00 0.00 31 1010.2
20170820164811 88 163 6.0 13.0 0.00 0.00 0.00 31 1010.2
20170820164311 88 134 7.0 13.0 0.00 0.00 0.00 32 1010.2
20170820163812 88 141 6.0 10.0 0.00 0.00 0.00 32 1010.2
20170820163311 88 176 6.0 10.0 0.00 0.00 0.00 32 1010.2
20170820162811 89 151 6.0 13.0 0.00 0.00 0.00 33 1010.2
20170820162311 89 183 6.0 13.0 0.00 0.00 0.00 34 1010.2
20170820161811 90 162 8.0 13.0 0.00 0.00 0.00 36 1010.2
20170820161311 91 137 7.0 10.0 0.00 0.00 0.00 35 1010.2
20170820160811 91 145 6.0 10.0 0.00 0.00 0.00 35 1010.2
20170820160311 92 175 3.0 8.0 0.00 0.00 0.00 34 1010.2
20170820155811 92 157 6.0 10.0 0.00 0.00 0.00 34 1010.2
20170820155311 92 156 6.0 10.0 0.00 0.00 0.00 33 1010.2
20170820154811 92 302 0.0 5.0 0.00 0.00 0.00 32 1010.2
20170820154310 92 350 0.0 2.0 0.00 0.00 0.00 33 1010.2
20170820153811 92 304 0.0 2.0 0.00 0.00 0.00 36 1010.2
20170820153311 92 7 0.0 0.0 0.00 0.00 0.00 37 1010.2
20170820152810 92 4 0.0 5.0 0.00 0.00 0.00 35 1010.2
20170820152311 92 27 0.0 2.0 0.00 0.00 0.00 35 1010.3
20170820151811 91 14 0.0 2.0 0.00 0.00 0.00 34 1010.5
20170820151310 91 284 3.0 5.0 0.00 0.00 0.00 29 1010.2
20170820150811 91 335 0.0 2.0 0.00 0.00 0.00 40 1010.5
20170820150311 91 0 1.0 5.0 0.00 0.00 0.00 40 1010.5
20170820145811 91 13 1.0 5.0 0.00 0.00 0.00 36 1010.5
20170820145310 91 354 0.0 5.0 0.00 0.00 0.00 38 1010.5
20170820144811 90 331 2.0 8.0 0.00 0.00 0.00 32 1010.5
20170820144310 90 344 5.0 8.0 0.00 0.00 0.00 35 1010.5
20170820143810 90 288 2.0 8.0 0.00 0.00 0.00 33 1010.5
20170820143310 90 355 5.0 8.0 0.00 0.00 0.00 32 1010.6
20170820142810 89 346 2.0 8.0 0.00 0.00 0.00 31 1010.8
20170820142310 89 343 7.0 10.0 0.00 0.00 0.00 36 1010.6
20170820141811 89 318 3.0 8.0 0.00 0.00 0.00 36 1010.8
20170820141311 89 335 3.0 10.0 0.00 0.00 0.00 41 1010.8
20170820140810 89 356 6.0 10.0 0.00 0.00 0.00 42 1010.8
20170820140311 89 352 7.0 13.0 0.00 0.00 0.00 36 1010.8
20170820135811 90 354 6.0 13.0 0.00 0.00 0.00 44 1010.8
20170820135310 90 339 6.0 10.0 0.00 0.00 0.00 45 1010.8
20170820134811 90 335 3.0 8.0 0.00 0.00 0.00 43 1010.8
20170820134310 91 354 3.0 10.0 0.00 0.00 0.00 35 1010.8
20170820133810 91 17 4.0 10.0 0.00 0.00 0.00 42 1010.8
20170820133311 90 353 5.0 10.0 0.00 0.00 0.00 34 1011.0
20170820132811 90 304 2.0 10.0 0.00 0.00 0.00 31 1011.2
20170820132311 90 345 6.0 13.0 0.00 0.00 0.00 34 1011.2
20170820131810 90 320 6.0 10.0 0.00 0.00 0.00 31 1011.2
20170820131310 89 351 7.0 13.0 0.00 0.00 0.00 32 1011.2
20170820130810 89 327 9.0 13.0 0.00 0.00 0.00 34 1011.2
20170820130311 90 345 9.0 13.0 0.00 0.00 0.00 37 1011.2
20170820125811 90 9 9.0 13.0 0.00 0.00 0.00 39 1011.2
20170820125310 90 341 9.0 17.0 0.00 0.00 0.00 33 1011.5
20170820124810 90 321 11.0 17.0 0.00 0.00 0.00 36 1011.5
20170820124310 91 0 13.0 17.0 0.00 0.00 0.00 37 1011.3
20170820123810 91 351 12.0 17.0 0.00 0.00 0.00 36 1011.2
20170820123310 91 336 11.0 17.0 0.00 0.00 0.00 30 1011.5
20170820122810 91 293 10.0 17.0 0.00 0.00 0.00 32 1011.5
20170820122310 91 346 10.0 17.0 0.00 0.00 0.00 34 1011.5
20170820121810 91 348 7.0 17.0 0.00 0.00 0.00 31 1011.5
20170820121310 91 320 9.0 17.0 0.00 0.00 0.00 31 1011.5
20170820120810 90 326 10.0 17.0 0.00 0.00 0.00 32 1011.5
20170820120310 90 265 9.0 15.0 0.00 0.00 0.00 31 1011.5
20170820115810 90 293 6.0 15.0 0.00 0.00 0.00 31 1011.8
20170820115310 90 293 9.0 15.0 0.00 0.00 0.00 30 1011.9
20170820114810 90 338 11.0 17.0 0.00 0.00 0.00 31 1011.9
20170820114310 90 332 9.0 15.0 0.00 0.00 0.00 32 1011.9
20170820113810 90 341 7.0 21.0 0.00 0.00 0.00 34 1011.9
20170820113310 90 341 10.0 17.0 0.00 0.00 0.00 32 1011.9
20170820112810 90 283 10.0 17.0 0.00 0.00 0.00 31 1011.9
20170820112310 90 344 12.0 21.0 0.00 0.00 0.00 36 1011.9
20170820111810 90 342 9.0 15.0 0.00 0.00 0.00 32 1012.1
20170820111310 89 308 10.0 15.0 0.00 0.00 0.00 32 1012.2
20170820110810 89 345 9.0 17.0 0.00 0.00 0.00 33 1012.2
20170820110310 89 311 9.0 17.0 0.00 0.00 0.00 32 1012.2
20170820105810 89 285 9.0 17.0 0.00 0.00 0.00 31 1012.2
20170820105309 89 334 12.0 17.0 0.00 0.00 0.00 34 1012.4
20170820104810 88 331 10.0 21.0 0.00 0.00 0.00 31 1012.2
20170820104310 88 352 11.0 17.0 0.00 0.00 0.00 36 1012.2
20170820103810 87 348 7.0 17.0 0.00 0.00 0.00 38 1012.5
20170820103310 87 349 11.0 15.0 0.00 0.00 0.00 35 1012.5
20170820102810 86 350 10.0 13.0 0.00 0.00 0.00 41 1012.5
20170820102310 86 89 5.0 15.0 0.00 0.00 0.00 43 1012.5
20170820101810 86 343 8.0 15.0 0.00 0.00 0.00 44 1012.7
20170820101310 86 4 9.0 15.0 0.00 0.00 0.00 47 1012.5
20170820100809 86 331 12.0 17.0 0.00 0.00 0.00 46 1012.5
20170820100309 86 324 11.0 17.0 0.00 0.00 0.00 44 1012.7
20170820095810 86 348 9.0 13.0 0.00 0.00 0.00 42 1012.9
20170820095310 85 330 7.0 15.0 0.00 0.00 0.00 50 1012.9
20170820094810 85 324 9.0 15.0 0.00 0.00 0.00 51 1012.9
20170820094309 85 18 7.0 15.0 0.00 0.00 0.00 45 1012.9
20170820093809 85 346 6.0 13.0 0.00 0.00 0.00 41 1012.9
20170820093309 84 1 9.0 13.0 0.00 0.00 0.00 43 1013.1
20170820092810 84 353 3.0 10.0 0.00 0.00 0.00 54 1012.9
20170820092309 84 331 7.0 13.0 0.00 0.00 0.00 53 1013.2
20170820091810 84 348 6.0 13.0 0.00 0.00 0.00 43 1013.2
20170820091309 84 2 4.0 13.0 0.00 0.00 0.00 53 1013.2
20170820090810 84 3 7.0 13.0 0.00 0.00 0.00 54 1013.2
20170820090309 84 308 9.0 15.0 0.00 0.00 0.00 50 1013.2
20170820085810 84 332 10.0 17.0 0.00 0.00 0.00 50 1013.4
20170820085309 84 2 7.0 15.0 0.00 0.00 0.00 49 1013.5
20170820084810 84 322 5.0 10.0 0.00 0.00 0.00 53 1013.3
20170820084309 84 2 3.0 13.0 0.00 0.00 0.00 55 1013.5
20170820083810 84 346 9.0 13.0 0.00 0.00 0.00 46 1013.5
20170820083310 83 343 10.0 15.0 0.00 0.00 0.00 53 1013.5